Regional Weather Roundup
Issued by NWS

Home | Current Version | Previous Version | Text Only | Print | Product List | Glossary On
Versions: 1 2 3 4 5 6 7 8 9 10 11 12 13 14 15 16 17 18 19 20 21 22 23 24 25 26 27 28 29 30 31 32 33 34 35 36 37 38 39 40 41 42 43 44 45 46 47 48 49 50
682
ASUS42 KTBW 092316
RWRFL
FLORIDA REGIONAL WEATHER ROUNDUP
NATIONAL WEATHER SERVICE TAMPA BAY RUSKIN FL
600 PM EST TUE FEB 09 2016

NOTE: "FAIR" INDICATES FEW OR NO CLOUDS BELOW 12,000 FEET WITH NO
SIGNIFICANT WEATHER AND/OR OBSTRUCTIONS TO VISIBILITY.


FLZ001>010-012>015-112-114-115-100000-
PANHANDLE FLORIDA

CITY           SKY/WX    TMP DP  RH WIND       PRES   REMARKS
PENSACOLA      CLEAR     53  15  22 W18G24    30.01R
MILTON NAS     PTCLDY    50  15  24 W15       30.00  WCI  45
CRESTVIEW      CLEAR     51  13  21 W15G21    30.00R
DUKE FIELD     PTCLDY    51  13  22 NW13G24   29.98R
VALPARAISO     PTCLDY    52  14  21 W15G21    29.99R
MARY ESTHER    CLEAR     52  12  20 W10G20    29.99R
TRI COUNTY     FAIR      49  17  28 W6        29.99R
PANAMA CITY    FAIR      51  16  24 W13G20    29.98R
TYNDALL AFB    CLEAR     51  24  35 NW21      29.99R
APALACHICOLA   CLEAR     50  28  42 NW18      29.99R WCI  44

STATION/POSITION SKY/WX   TEMP    WIND        PRES    WAVE   SWELL
                          AIR SEA DIR/SP/G            HT/PER HT/PER
                          (F)     (DEG/KT/KT) (MB)    (FT/S) (FT/S)
30.1N   87.6W              54 64  270/ 23/ 31 1015.7R   5/ 5   2/12
28.8N   86.0W              56 70  290/ 23/ 27 1016.9R  11/ 9   7/ 9
PANAMA CITY BEAC           51 58  280/ 23/ 29 1015.2R
CAPE SAN BLAS    NOT AVBL
TOWER C          NOT AVBL
28.5N   84.5W              58 67  280/ 25/ 35 1015.6R  12/ 8

$$
FLZ011-016>038-118-127-128-134-139-239-100000-
NORTH FLORIDA

CITY           SKY/WX    TMP DP  RH WIND       PRES   REMARKS
MARIANNA       CLEAR     50  15  24 W17       29.96R WCI  44
TALLAHASSEE    CLEAR     53  13  20 W17       29.95R
PERRY          CLEAR     52  26  37 SW12G20   29.95R
LIVE OAK         N/A     54  27  35 W5        29.93R
CROSS CITY       N/A     52  33  48 W17G26    29.96R
LAKE CITY      FAIR      50  30  46 W20G28    29.92R WCI  44
GAINESVILLE    PTCLDY    52  31  44 SW22G32   29.93R
WILLISTON      FAIR      55  36  47 W23G30    29.96R
KEYSTONE HEIGH FAIR      54  28  37 W15G26    29.91R
PALATKA        FAIR      54  34  47 W20G35    29.91R
MAYPORT NAS    PTCLDY    54  28  36 W15G29    29.88R
JACKSONVILLE   PTCLDY    52  28  39 W15G23    29.88R
JAX NAS        PTCLDY    55  28  35 W21G30    29.89R
JAX CRAIG      PTCLDY    54  28  36 W13G23    29.88R
JAX CECIL      CLEAR     54  28  37 SW16G25   29.89R
FERNANDINA BEA FAIR      54  23  30 W6        29.87R
ST AUGUSTINE   CLEAR     55  33  43 W13G26    29.90R
PALM COAST     PTCLDY   N/A N/A N/A W16G29    29.91R

STATION/POSITION SKY/WX   TEMP    WIND        PRES    WAVE   SWELL
                          AIR SEA DIR/SP/G            HT/PER HT/PER
                          (F)     (DEG/KT/KT) (MB)    (FT/S) (FT/S)
SHELL POINT                53     270/ 13/ 18 1012.1
KEATON BEACH               51     270/ 20/ 23 1013.9R
CEDAR KEY                  53     290/ 19/ 25 1015.5R
FERNANDINA                 54 54  260/ 15/ 20 1011.4R
30.7N   81.3W                 56                N/A     3/ 3   2/14
MAYPORT                    54 56  250/ 19/ 24 1011.1R
31.4N   80.9W              50 55  280/ 19/ 25 1011.4R   4/ 5
ST AUGUSTINE               54 57  250/ 15/ 19 1012.8R

$$
FLZ040-043>046-052-053-057-058-063-144-100000-
INTERIOR CENTRAL FLORIDA

CITY           SKY/WX    TMP DP  RH WIND       PRES   REMARKS
OCALA          PTCLDY    54  34  47 W17G30    29.95R
THE VILLAGES     N/A     55  41  58 SW16G26   29.86R
LEESBURG       MOCLDY    57  39  51 W20G30    29.96R
SANFORD        MOCLDY    57  39  51 W15G25    29.94R
ORLANDO EXEC   MOCLDY    60  36  40 W25G33    29.94S
ORLANDO INTL   MOCLDY    58  36  43 W23G30    29.97R
WINTER HAVEN   PTCLDY    58  39  49 W15G29    30.00R
LAKELAND       MOCLDY    57  39  51 W18G25    30.00R
BARTOW         FAIR      57  37  47 W15G25    30.00R
OKEECHOBEE     PTCLDY    57  43  58 W12G17    30.01S

$$
FLZ041-047-054-059-064-141-147-100000-
EAST CENTRAL FLORIDA

CITY           SKY/WX    TMP DP  RH WIND       PRES   REMARKS
DAYTONA BEACH  PTCLDY    55  38  52 W15G25    29.93R
DELAND           N/A     55  37  50 W9G18     29.95R
NEW SMYRNA BEA PTCLDY    57  39  51 W25G35    29.90R
JFK SPACE CTR  PTCLDY    57  40  53 W13       29.94R
TITUSVILLE     PTCLDY    55  37  50 SW18      29.95S
CAPE CANAVERAL PTCLDY    57  41  54 W14       29.94R
PATRICK AFB    PTCLDY    58  42  55 W13       29.95S
MELBOURNE      PTCLDY    58  41  53 SW13G23   29.96S
VERO BEACH     PTCLDY    59  39  47 W18G25    29.99R
FT PIERCE      PTCLDY    58  42  55 W16G25    29.99R

STATION/POSITION SKY/WX   TEMP    WIND        PRES    WAVE   SWELL
                          AIR SEA DIR/SP/G            HT/PER HT/PER
                          (F)     (DEG/KT/KT) (MB)    (FT/S) (FT/S)
28.5N   80.2W              59 69  250/ 21/ 27 1013.8F
28.9N   78.5W              61 72              1013.4F
TRIDENT PIER               59 64  230/ 15/ 23 1013.8F
28.4N   80.5W                 63                N/A     3/17   2/17
27.5N   80.2W                 71                N/A     4/14   2/14

$$
FLZ050-056-061-142-242-148-248-149-249-151-251-155-255-
160-260-100000-
WEST CENTRAL FLORIDA

CITY           SKY/WX    TMP DP  RH WIND       PRES   REMARKS
CRYSTAL RIVER  CLOUDY    54  41  62 W17G30    29.98R
INVERNESS      FAIR      54  41  62 W7G17     29.98R HAZE
BROOKSVILLE    MOCLDY    56  41  57 W20G25    30.00R
ZEPHYRHILLS    MOCLDY    57  38  49 W16G28    30.00R
CLEARWATER AIR MOCLDY    57  41  54 W13G23    30.01R
ST PETE CLEARW CLOUDY    59  41  51 W20G25    30.02R
TAMPA INTL     MOCLDY    59  40  49 W22G31    30.01R
TAMPA EXEC     MOCLDY    61  37  41 W9G20     30.01R
PLANT CITY     MOCLDY    59  41  51 W14G26    30.02R
MACDILL AFB    CLOUDY    59  44  56 W14G26    30.01R
PETER O KNIGHT MOCLDY    61  45  55 W14G21    30.02R
ST PETERSBURG  CLOUDY    60  41  49 W17G24    30.00R
SARASOTA       MOCLDY    60  43  53 W21       30.02R
VENICE         FAIR      61  46  59 W18G24    30.05R

STATION/POSITION SKY/WX   TEMP    WIND        PRES    WAVE   SWELL
                          AIR SEA DIR/SP/G            HT/PER HT/PER
                          (F)     (DEG/KT/KT) (MB)    (FT/S) (FT/S)
CEDAR KEY                  53     290/ 19/ 25 1015.5R
28.5N   84.5W              58 67  280/ 25/ 35 1015.6R  12/ 8
27.3N   84.2W                 71                N/A    11/10   3/11
CLEARWATER BEACH           59 56  260/ 24/ 28 1015.8R
MIDDLE TAMPA BAY           59     290/ 21/ 24 1016.3R
VENICE                     61 60  290/ 20/ 22 1016.7R

$$
FLZ066-069-070-075>078-162-262-165-265-100000-
SOUTHWEST FLORIDA AND KEYS

CITY           SKY/WX    TMP DP  RH WIND       PRES   REMARKS
PUNTA GORDA    PTCLDY    60  46  59 W13G22    30.05R
FT MYERS       MOCLDY    61  46  57 W16       30.04R
SOUTHWEST INTL MOCLDY    62  45  53 W14G20    30.05R
NAPLES         MOCLDY    62  48  60 W16G22    30.06R
MARCO ISLAND   MOCLDY    63  45  51 W13G18    30.06R
MARATHON       CLOUDY    65  53  65 NW12G18   30.09R
KEY WEST NAS   CLOUDY    65  54  67 NW10      30.10R
KEY WEST INTL  CLOUDY    66  57  72 NW14      30.10R

STATION/POSITION SKY/WX   TEMP    WIND        PRES    WAVE   SWELL
                          AIR SEA DIR/SP/G            HT/PER HT/PER
                          (F)     (DEG/KT/KT) (MB)    (FT/S) (FT/S)
VENICE                     61 60  290/ 20/ 22 1016.7R
NAPLES                        64              1017.4R
26.0N   85.6W              66 79  280/ 23/ 29 1019.0R  10/10   5/10
DRY TORTUGAS                                    N/A
SAND KEY                   66     320/ 16/ 20 1019.5R
LONG KEY                   64 65  320/ 17/ 19 1019.6R
MOLASSES REEF              64 75  300/ 17/ 19 1018.5R

$$
FLZ067-068-071>074-168-172>174-100000-
SOUTHEAST FLORIDA

CITY           SKY/WX    TMP DP  RH WIND       PRES   REMARKS
W PALM BEACH   MOCLDY    62  45  53 W15       30.03R
BOCA RATON     PTCLDY    63  45  51 W21       30.03R
FT LAUDER-EXEC CLOUDY    63  44  50 W18G25    30.04R
FT LAUDERDALE  CLOUDY    64  46  52 W16G23    30.04R
POMPANO BEACH  CLOUDY    64  46  52 W18       30.03R
PEMBROKE PINES CLOUDY    64  45  49 W17       30.06R
OPA LOCKA      CLOUDY    65  46  50 W21       30.06R
MIAMI          CLOUDY    64  47  53 W9G18     30.06R
WEST KENDALL   CLOUDY    62  49  62 W17       30.07R
HOMESTEAD      CLOUDY    63  48  58 W13       30.07R

STATION/POSITION SKY/WX   TEMP    WIND        PRES    WAVE   SWELL
                          AIR SEA DIR/SP/G            HT/PER HT/PER
                          (F)     (DEG/KT/KT) (MB)    (FT/S) (FT/S)
PORT EVERGLADES            64     260/ 12/ 17 1017.1R
VIRGINIA KEY               65 69  270/ 12/ 16 1017.2R
LAKE WORTH       C1F1M1C2F2M2C3F3C4F4M3C5F5M4C6F6M5C7F7M6C8!



USA.gov is the U.S. government's official web portal to all federal, state and local government web resources and services.